Frankfort, MI

3:26 AM EST on November 23, 2017 (GMT -0500)
Frankfort

Weather History for KFKS - November, 2013

Change the Weather History Date:

Wednesday, November 27, 2013

  Actual Average (KMBL) Record (KMBL)
Temperature  
Mean Temperature 24 °F -  
Max Temperature 27 °F 40 °F 64 °F (1990)
Min Temperature 23 °F 28 °F 9 °F (1951)
Degree Days  
Heating Degree Days 40    
Moisture  
Dew Point 17 °F    
Average Humidity 70    
Maximum Humidity 85    
Minimum Humidity 56    
Precipitation  
Precipitation 0.00 in - - ()
Sea Level Pressure  
Sea Level Pressure 30.09 in    
Wind  
Wind Speed 9 mph (North)    
Max Wind Speed 15 mph    
Max Gust Speed 25 mph    
Visibility 7 miles    
Events Snow    
Averages and records for this station are not official NWS values.
T = Trace of Precipitation, MM = Missing Value Source: NWS Daily Summary

Daily Weather History Graph

Daily Weather History Graph

Search for Another Location

Airport or City:

Trip Planner

Search our weather history database for the weather conditions in past years. The results will help you decide how hot, cold, wet, or windy it might be!

Date:

Astronomy

Nov. 27, 2013 Rise Set
Actual Time 7:57 AM EST 5:07 PM EST
Civil Twilight 7:24 AM EST 5:40 PM EST
Nautical Twilight 6:48 AM EST 6:16 PM EST
Astronomical Twilight 6:13 AM EST 6:51 PM EST
Moon 1:45 AM EST (11/27) 1:56 PM EST (11/27)
Length of Visible Light 10h 15m
Length of Day
9h 10m
Waning Crescent, 32% of the Moon is Illuminated
Nov 27
Waning Crescent
Dec 2
New
Dec 9
First Quarter
Dec 17
Full
Dec 25
Last Quarter

Hourly Weather History & Observations

Time (EST) Temp. Windchill Dew Point Humidity Pressure Visibility Wind Dir Wind Speed Gust Speed Precip Events Conditions
12:15 AM 23.5 °F 15.4 °F 14.0 °F 67% 30.08 in 10.0 mi NNW 6.9 mph 18.4 mph N/A   Overcast
12:35 AM 23.5 °F 13.7 °F 14.7 °F 69% 30.07 in 7.0 mi NNW 9.2 mph - N/A Snow Light Snow
12:55 AM 23.7 °F 14.7 °F 16.3 °F 73% 30.07 in 5.0 mi NNW 8.1 mph 17.3 mph N/A Snow Light Snow
1:16 AM 23.7 °F 12.1 °F 14.9 °F 69% 30.06 in 7.0 mi North 12.7 mph 18.4 mph N/A Snow Light Snow
1:36 AM 23.5 °F 11.3 °F 16.7 °F 75% 30.05 in 7.0 mi NNW 13.8 mph 21.9 mph N/A Snow Light Snow
1:56 AM 23.9 °F 12.3 °F 15.1 °F 69% 30.05 in 7.0 mi NNW 12.7 mph 19.6 mph N/A Snow Light Snow
2:16 AM 24.4 °F 14.9 °F 13.6 °F 64% 30.04 in 10.0 mi NNW 9.2 mph 17.3 mph N/A   Overcast
2:36 AM 24.3 °F 14.6 °F 15.1 °F 68% 30.04 in 7.0 mi NNW 9.2 mph 20.7 mph N/A Snow Light Snow
2:56 AM 24.8 °F 16.1 °F 14.0 °F 64% 30.04 in 10.0 mi NNW 8.1 mph 19.6 mph N/A   Overcast
3:11 AM 24.6 °F 13.2 °F 15.1 °F 67% 30.04 in 7.0 mi NW 12.7 mph 23.0 mph N/A Snow Light Snow
3:31 AM 25.0 °F 14.2 °F 15.8 °F 68% 30.03 in 7.0 mi NNW 11.5 mph 21.9 mph N/A Snow Light Snow
3:52 AM 25.3 °F 14.7 °F 15.8 °F 67% 30.03 in 10.0 mi North 11.5 mph 18.4 mph N/A Snow Light Snow
4:12 AM 25.2 °F 15.1 °F 16.2 °F 69% 30.03 in 10.0 mi NNW 10.4 mph 18.4 mph N/A Snow Light Snow
4:32 AM 25.2 °F 13.9 °F 16.0 °F 68% 30.03 in 7.0 mi North 12.7 mph 23.0 mph N/A Snow Light Snow
4:52 AM 24.8 °F 12.9 °F 17.2 °F 73% 30.03 in 5.0 mi NNW 13.8 mph 23.0 mph N/A Snow Light Snow
5:12 AM 23.9 °F 13.5 °F 19.9 °F 85% 30.04 in 1.2 mi NNW 10.4 mph 19.6 mph N/A Snow Light Snow
5:32 AM 24.4 °F 13.0 °F 19.6 °F 82% 30.03 in 2.5 mi NNW 12.7 mph 20.7 mph N/A Snow Light Snow
5:52 AM 24.6 °F 12.7 °F 19.8 °F 82% 30.04 in 2.0 mi North 13.8 mph 20.7 mph N/A Snow Light Snow
6:12 AM 25.3 °F 15.3 °F 18.3 °F 75% 30.04 in 7.0 mi NNW 10.4 mph 25.3 mph N/A Snow Light Snow
6:32 AM 25.2 °F 12.9 °F 17.2 °F 72% 30.05 in 5.0 mi NNW 15.0 mph 21.9 mph N/A Snow Light Snow
6:52 AM 25.5 °F 13.3 °F 18.9 °F 76% 30.05 in 5.0 mi NNW 15.0 mph 21.9 mph N/A Snow Light Snow
7:12 AM 25.5 °F 14.9 °F 18.7 °F 75% 30.05 in 4.0 mi North 11.5 mph 20.7 mph N/A Snow Light Snow
7:33 AM 25.5 °F 15.5 °F 18.7 °F 75% 30.06 in 7.0 mi North 10.4 mph 24.2 mph N/A Snow Light Snow
7:53 AM 25.3 °F 15.3 °F 17.6 °F 72% 30.06 in 10.0 mi North 10.4 mph 23.0 mph N/A   Overcast
8:13 AM 25.5 °F 16.9 °F 16.3 °F 68% 30.07 in 10.0 mi NNE 8.1 mph - N/A   Overcast
8:33 AM 25.3 °F 18.5 °F 18.0 °F 74% 30.07 in 10.0 mi North 5.8 mph 17.3 mph N/A   Overcast
8:53 AM 25.7 °F 19.0 °F 16.3 °F 68% 30.08 in 10.0 mi North 5.8 mph 18.4 mph N/A   Overcast
9:13 AM 25.5 °F 17.8 °F 16.3 °F 68% 30.09 in 7.0 mi North 6.9 mph 16.1 mph N/A   Overcast
9:33 AM 25.7 °F 16.4 °F 15.8 °F 66% 30.09 in 7.0 mi North 9.2 mph 16.1 mph N/A   Overcast
9:54 AM 25.7 °F 17.1 °F 16.7 °F 69% 30.09 in 7.0 mi North 8.1 mph - N/A Snow Light Snow
10:14 AM 25.2 °F 15.7 °F 18.5 °F 76% 30.10 in 2.5 mi North 9.2 mph - N/A Snow Light Snow
10:34 AM 24.6 °F 15.1 °F 19.8 °F 82% 30.10 in 1.5 mi NNE 9.2 mph - N/A Snow Light Snow
10:54 AM 24.6 °F 16.7 °F 20.1 °F 83% 30.10 in 1.5 mi North 6.9 mph - N/A Snow Light Snow
11:14 AM 24.8 °F 16.9 °F 19.9 °F 82% 30.10 in 1.2 mi North 6.9 mph - N/A Snow Light Snow
11:34 AM 25.5 °F 16.9 °F 19.4 °F 78% 30.10 in 2.5 mi NNE 8.1 mph - N/A Snow Light Snow
11:54 AM 25.7 °F 14.6 °F 18.3 °F 74% 30.09 in 2.5 mi North 12.7 mph 18.4 mph N/A Snow Light Snow
12:14 PM 25.3 °F 15.3 °F 18.3 °F 75% 30.10 in 3.0 mi North 10.4 mph 18.4 mph N/A Snow Light Snow
12:35 PM 25.7 °F 16.4 °F 17.8 °F 72% 30.09 in 5.0 mi North 9.2 mph 19.6 mph N/A Snow Light Snow
12:55 PM 25.7 °F 16.4 °F 18.3 °F 74% 30.09 in 4.0 mi North 9.2 mph 19.6 mph N/A Snow Light Snow
1:15 PM 25.9 °F 15.3 °F 16.7 °F 68% 30.09 in 10.0 mi NNE 11.5 mph 21.9 mph N/A   Overcast
1:35 PM 26.1 °F 16.2 °F 16.2 °F 66% 30.09 in 10.0 mi North 10.4 mph 17.3 mph N/A   Overcast
1:55 PM 24.8 °F 20.5 °F 17.4 °F 74% 30.09 in 7.0 mi NNE 3.5 mph - N/A Snow Light Snow
2:15 PM 25.5 °F 15.5 °F 16.9 °F 70% 30.09 in 3.0 mi North 10.4 mph 17.3 mph N/A Snow Light Snow
2:35 PM 25.7 °F 17.1 °F 19.2 °F 76% 30.09 in 10.0 mi NNE 8.1 mph - N/A Snow Light Snow
2:56 PM 25.0 °F 16.3 °F 19.9 °F 81% 30.09 in 1.2 mi North 8.1 mph 19.6 mph N/A Snow Light Snow
3:16 PM 26.6 °F 15.7 °F 15.4 °F 63% 30.09 in 10.0 mi North 12.7 mph 18.4 mph N/A   Overcast
3:36 PM 26.4 °F 16.6 °F 15.3 °F 63% 30.09 in 10.0 mi North 10.4 mph 21.9 mph N/A   Overcast
3:56 PM 25.7 °F 16.4 °F 17.1 °F 70% 30.10 in 5.0 mi NNW 9.2 mph 17.3 mph N/A Snow Light Snow
4:16 PM 26.2 °F 17.8 °F 16.7 °F 67% 30.10 in 10.0 mi NNW 8.1 mph 16.1 mph N/A Snow Light Snow
4:36 PM 26.4 °F 17.3 °F 15.4 °F 63% 30.11 in 5.0 mi North 9.2 mph 21.9 mph N/A   Haze
4:56 PM 26.2 °F 17.1 °F 16.9 °F 68% 30.12 in 7.0 mi North 9.2 mph 18.4 mph N/A Snow Light Snow
5:16 PM 26.2 °F 16.4 °F 16.0 °F 65% 30.12 in 10.0 mi North 10.4 mph 19.6 mph N/A   Overcast
5:36 PM 26.6 °F 16.2 °F 15.8 °F 64% 30.13 in 10.0 mi NNW 11.5 mph 17.3 mph N/A   Overcast
5:56 PM 26.2 °F 17.1 °F 17.8 °F 70% 30.13 in 5.0 mi North 9.2 mph - N/A Snow Light Snow
6:11 PM 26.2 °F 18.6 °F 18.5 °F 73% 30.13 in 7.0 mi NNW 6.9 mph - N/A Snow Light Snow
6:31 PM 26.6 °F 17.5 °F 14.5 °F 60% 30.13 in 10.0 mi North 9.2 mph - N/A   Overcast
6:52 PM 25.7 °F 15.7 °F 17.1 °F 70% 30.14 in 10.0 mi North 10.4 mph 16.1 mph N/A   Mostly Cloudy
7:12 PM 25.5 °F 19.9 °F 19.9 °F 79% 30.14 in 5.0 mi NNW 4.6 mph 17.3 mph N/A Snow Light Snow
7:32 PM 26.6 °F 17.5 °F 15.4 °F 63% 30.14 in 10.0 mi North 9.2 mph - N/A   Overcast
7:52 PM 26.6 °F 16.2 °F 15.8 °F 64% 30.15 in 7.0 mi NNW 11.5 mph 20.7 mph N/A Snow Light Snow
8:12 PM 26.6 °F 20.0 °F 14.9 °F 61% 30.15 in 10.0 mi NNW 5.8 mph - N/A   Overcast
8:32 PM 26.6 °F 19.1 °F 13.1 °F 57% 30.15 in 10.0 mi North 6.9 mph - N/A   Overcast
8:52 PM 26.6 °F 19.1 °F 12.7 °F 56% 30.14 in 10.0 mi North 6.9 mph - N/A   Scattered Clouds
9:13 PM 26.4 °F 18.9 °F 14.7 °F 61% 30.15 in 10.0 mi North 6.9 mph - N/A   Mostly Cloudy
9:33 PM 26.6 °F 18.2 °F 14.2 °F 60% 30.15 in 10.0 mi NNW 8.1 mph - N/A   Overcast
9:53 PM 26.6 °F 20.0 °F 14.4 °F 60% 30.15 in 10.0 mi North 5.8 mph - N/A   Overcast
10:13 PM 26.1 °F - 15.4 °F 64% 30.15 in 10.0 mi Calm Calm - N/A   Overcast
10:33 PM 26.1 °F - 15.6 °F 65% 30.16 in 10.0 mi Calm Calm - N/A   Overcast
10:53 PM 25.9 °F 19.2 °F 15.8 °F 66% 30.16 in 10.0 mi North 5.8 mph - N/A Snow Light Snow
11:13 PM 24.8 °F - 16.3 °F 70% 30.17 in 10.0 mi Calm Calm - N/A   Overcast
11:33 PM 24.3 °F 17.3 °F 17.2 °F 75% 30.17 in 7.0 mi SE 5.8 mph - N/A Snow Light Snow
11:53 PM 23.7 °F 16.6 °F 18.5 °F 80% 30.18 in 5.0 mi ESE 5.8 mph - N/A Snow Light Snow